{"data":{"norad_id":64333,"epoch":"2026-09-20T21:34:02.434656Z","epoch_age_seconds":99998,"freshness":"FRESH","line1":"1 64333U 25124S   26263.89863929  .00011548  00000+0  42837-3 0  9991","line2":"2 64333  42.9984  99.3963 0000780 289.6658  70.4110 15.27589966 71633","mean_motion":15.27589966,"eccentricity":7.8e-5,"inclination_deg":42.9984,"raan_deg":99.3963,"arg_perigee_deg":289.6658,"mean_anomaly_deg":70.411,"bstar":0.00042837,"rev_number":7163,"period_min":94.266133717194,"perigee_km":482.4840842248,"apogee_km":483.55442460049,"semimajor_km":6861.1562544126,"source":"CELESTRAK","updated_at":"2026-09-21T09:00:35.313926Z"}}